Previsão horária em Pleshevychi

Hoje, 3 Março, Quarta-feira

Tempo Temperatura Precipitação Vento Pressão Humidade
00:00 +2°C° 0 mm 2 m/s 752 mmHg 88%
01:00 +2°C° 0 mm 2 m/s 752 mmHg 89%
02:00 +1°C° 0 mm 2 m/s 752 mmHg 90%
03:00 +1°C° 0 mm 2 m/s 752 mmHg 90%
04:00 +1°C° 0 mm 2 m/s 751 mmHg 90%
05:00 +1°C° 0 mm 2 m/s 751 mmHg 91%
06:00 +1°C° 0 mm 2 m/s 751 mmHg 90%
07:00 +1°C° 0 mm 2 m/s 751 mmHg 90%
08:00 +1°C° 0 mm 2 m/s 751 mmHg 90%
09:00 +3°C° 0 mm 2 m/s 751 mmHg 84%
10:00 +5°C° 0 mm 2 m/s 751 mmHg 78%
11:00 +7°C° 0 mm 2 m/s 751 mmHg 73%
12:00 +8°C° 0 mm 2 m/s 750 mmHg 69%
13:00 +9°C° 0 mm 2 m/s 750 mmHg 65%
14:00 +10°C° 0 mm 2 m/s 750 mmHg 62%
15:00 +9°C° 0 mm 2 m/s 749 mmHg 65%
16:00 +9°C° 0 mm 2 m/s 748 mmHg 69%
17:00 +10°C° 0 mm 1 m/s 747 mmHg 72%
18:00 +8°C° 0 mm 2 m/s 747 mmHg 75%
19:00 +6°C° 0 mm 2 m/s 747 mmHg 79%
20:00 +5°C° 0 mm 2 m/s 747 mmHg 82%
21:00 +4°C° 0 mm 3 m/s 746 mmHg 82%
22:00 +3°C° 0 mm 3 m/s 746 mmHg 82%
23:00 +3°C° 0 mm 3 m/s 745 mmHg 83%

Amanhã, 4 Março, Quinta-feira

Tempo Temperatura Precipitação Vento Pressão Humidade
00:00 +3°C° 0 mm 3 m/s 745 mmHg 83%
01:00 +3°C° 0 mm 4 m/s 745 mmHg 84%
02:00 +3°C° 0 mm 4 m/s 744 mmHg 84%
03:00 +3°C° 0 mm 4 m/s 744 mmHg 83%
04:00 +2°C° 0 mm 5 m/s 743 mmHg 82%
05:00 +2°C° 0 mm 5 m/s 742 mmHg 81%
06:00 +2°C° 0 mm 5 m/s 742 mmHg 80%
07:00 +2°C° 0 mm 5 m/s 741 mmHg 79%
08:00 +2°C° 0 mm 5 m/s 741 mmHg 78%
09:00 +4°C° 0 mm 6 m/s 741 mmHg 73%
10:00 +5°C° 0 mm 6 m/s 740 mmHg 69%
11:00 +8°C° 0 mm 6 m/s 740 mmHg 64%
12:00 +9°C° 0 mm 6 m/s 739 mmHg 62%
13:00 +9°C° 0 mm 6 m/s 739 mmHg 60%
14:00 +10°C° 0 mm 6 m/s 739 mmHg 58%
15:00 +9°C° 0 mm 6 m/s 738 mmHg 62%
16:00 +9°C° 0 mm 5 m/s 737 mmHg 65%
17:00 +8°C° 0 mm 5 m/s 737 mmHg 68%
18:00 +7°C° 0.1 mm 5 m/s 737 mmHg 73%
19:00 +6°C° 0.1 mm 4 m/s 737 mmHg 77%
20:00 +5°C° 0.1 mm 4 m/s 737 mmHg 81%
21:00 +5°C° 0.3 mm 4 m/s 737 mmHg 82%
22:00 +5°C° 0.3 mm 3 m/s 736 mmHg 83%
23:00 +6°C° 0.3 mm 2 m/s 736 mmHg 84%

Depois de amanhã, 5 Março, Sexta-feira

Tempo Temperatura Precipitação Vento Pressão Humidade
00:00 +5°C° 0.4 mm 3 m/s 736 mmHg 86%
01:00 +4°C° 0.4 mm 3 m/s 736 mmHg 88%
02:00 +4°C° 0.4 mm 4 m/s 736 mmHg 90%
03:00 +3°C° 0.9 mm 4 m/s 735 mmHg 92%
04:00 0°C° 0.9 mm 4 m/s 735 mmHg 95%
05:00 -1°C° 0.9 mm 4 m/s 735 mmHg 97%
06:00 -1°C° 1 mm 4 m/s 736 mmHg 97%
07:00 0°C° 1 mm 3 m/s 736 mmHg 97%
08:00 0°C° 1 mm 3 m/s 737 mmHg 97%
09:00 -1°C° 0.4 mm 4 m/s 738 mmHg 94%
10:00 -1°C° 0.4 mm 4 m/s 738 mmHg 92%
11:00 -1°C° 0.4 mm 4 m/s 739 mmHg 89%
12:00 -1°C° 0.1 mm 4 m/s 739 mmHg 82%
13:00 -1°C° 0.1 mm 4 m/s 739 mmHg 75%
14:00 0°C° 0.1 mm 4 m/s 740 mmHg 68%
15:00 0°C° 0 mm 4 m/s 740 mmHg 67%
16:00 -1°C° 0 mm 4 m/s 740 mmHg 65%
17:00 0°C° 0 mm 3 m/s 741 mmHg 63%
18:00 -1°C° 0 mm 3 m/s 741 mmHg 67%
19:00 -2°C° 0 mm 2 m/s 742 mmHg 71%
20:00 -2°C° 0 mm 2 m/s 743 mmHg 76%
21:00 -3°C° 0 mm 2 m/s 743 mmHg 76%
22:00 -3°C° 0 mm 2 m/s 744 mmHg 77%
23:00 -3°C° 0 mm 2 m/s 744 mmHg 78%

6 Março, Sábado

Tempo Temperatura Precipitação Vento Pressão Humidade
00:00 -3°C° 0 mm 2 m/s 745 mmHg 79%
01:00 -3°C° 0 mm 2 m/s 745 mmHg 80%
02:00 -3°C° 0 mm 2 m/s 745 mmHg 81%
03:00 -3°C° 0 mm 2 m/s 745 mmHg 81%
04:00 -1°C° 0 mm 1 m/s 746 mmHg 81%
05:00 -2°C° 0 mm 1 m/s 746 mmHg 82%
06:00 -3°C° 0 mm 2 m/s 746 mmHg 80%
07:00 -4°C° 0 mm 3 m/s 747 mmHg 79%
08:00 -4°C° 0 mm 3 m/s 747 mmHg 77%
09:00 -3°C° 0.1 mm 4 m/s 748 mmHg 73%
10:00 -3°C° 0.1 mm 4 m/s 748 mmHg 70%
11:00 -2°C° 0.1 mm 5 m/s 748 mmHg 66%
12:00 -1°C° 0.1 mm 5 m/s 749 mmHg 60%
13:00 -1°C° 0.1 mm 5 m/s 749 mmHg 54%
14:00 -1°C° 0.1 mm 5 m/s 749 mmHg 48%
15:00 -1°C° 0 mm 4 m/s 749 mmHg 48%
16:00 -1°C° 0 mm 4 m/s 749 mmHg 49%
17:00 -1°C° 0 mm 3 m/s 749 mmHg 50%
18:00 -2°C° 0 mm 3 m/s 749 mmHg 56%
19:00 -2°C° 0 mm 2 m/s 749 mmHg 62%
20:00 -3°C° 0 mm 2 m/s 749 mmHg 68%
21:00 -3°C° 0 mm 2 m/s 749 mmHg 68%
22:00 -4°C° 0 mm 3 m/s 749 mmHg 68%
23:00 -4°C° 0 mm 3 m/s 749 mmHg 68%

7 Março, Domingo

Tempo Temperatura Precipitação Vento Pressão Humidade
00:00 -4°C° 0 mm 4 m/s 749 mmHg 68%
01:00 -4°C° 0 mm 4 m/s 748 mmHg 67%
02:00 -4°C° 0 mm 4 m/s 748 mmHg 66%
03:00 -5°C° 0 mm 5 m/s 747 mmHg 65%
04:00 -5°C° 0 mm 5 m/s 747 mmHg 63%
05:00 -5°C° 0 mm 5 m/s 746 mmHg 61%
06:00 -5°C° 0 mm 6 m/s 746 mmHg 60%
07:00 -5°C° 0 mm 6 m/s 746 mmHg 59%
08:00 -6°C° 0 mm 7 m/s 745 mmHg 58%
09:00 -3°C° 0 mm 7 m/s 745 mmHg 53%
10:00 -2°C° 0 mm 7 m/s 745 mmHg 49%
11:00 -1°C° 0 mm 7 m/s 744 mmHg 44%
12:00 0°C° 0 mm 7 m/s 744 mmHg 45%
13:00 +2°C° 0 mm 7 m/s 743 mmHg 45%
14:00 +2°C° 0 mm 7 m/s 742 mmHg 45%
15:00 +2°C° 0 mm 7 m/s 742 mmHg 49%
16:00 +1°C° 0 mm 6 m/s 741 mmHg 52%
17:00 +1°C° 0 mm 5 m/s 741 mmHg 55%
18:00 0°C° 0 mm 5 m/s 741 mmHg 58%
19:00 -1°C° 0 mm 5 m/s 740 mmHg 62%
20:00 -2°C° 0 mm 5 m/s 740 mmHg 65%
21:00 -2°C° 0 mm 5 m/s 740 mmHg 65%
22:00 -2°C° 0 mm 5 m/s 740 mmHg 65%
23:00 -2°C° 0 mm 5 m/s 740 mmHg 64%

8 Março, Segunda-feira

Tempo Temperatura Precipitação Vento Pressão Humidade
00:00 -2°C° 0.1 mm 5 m/s 740 mmHg 72%
01:00 -4°C° 0.1 mm 5 m/s 740 mmHg 79%
02:00 -4°C° 0.1 mm 5 m/s 740 mmHg 86%
03:00 -4°C° 0.3 mm 5 m/s 740 mmHg 88%
04:00 -4°C° 0.3 mm 4 m/s 740 mmHg 90%
05:00 -5°C° 0.3 mm 4 m/s 741 mmHg 92%
06:00 -5°C° 0.2 mm 4 m/s 741 mmHg 85%
07:00 -5°C° 0.2 mm 3 m/s 741 mmHg 78%
08:00 -4°C° 0.2 mm 2 m/s 742 mmHg 71%
09:00 -4°C° 0 mm 3 m/s 742 mmHg 66%
10:00 -4°C° 0 mm 3 m/s 743 mmHg 61%
11:00 -3°C° 0 mm 4 m/s 743 mmHg 56%
12:00 -3°C° 0 mm 4 m/s 743 mmHg 54%
13:00 -4°C° 0 mm 5 m/s 743 mmHg 52%
14:00 -2°C° 0 mm 5 m/s 743 mmHg 50%
15:00 -4°C° 0 mm 5 m/s 744 mmHg 51%
16:00 -4°C° 0 mm 5 m/s 744 mmHg 52%
17:00 -4°C° 0 mm 5 m/s 744 mmHg 53%
18:00 -4°C° 0 mm 4 m/s 745 mmHg 57%
19:00 -5°C° 0 mm 4 m/s 746 mmHg 62%
20:00 -6°C° 0 mm 3 m/s 746 mmHg 66%
21:00 -6°C° 0 mm 3 m/s 747 mmHg 65%
22:00 -5°C° 0 mm 2 m/s 747 mmHg 65%
23:00 -6°C° 0 mm 2 m/s 748 mmHg 64%
Mostrar mais

Necessitamos do seu Consentimento

A Meteoprog e os seus Fornecedores de Serviços podem armazenar e aceder a dados pessoais como cookies, identificadores do dispositivo ou outras tecnologias semelhantes existentes no seu dispositivo e processar estes dados para personalizar conteúdos e anúncios, assim como funcionalidades nas redes sociais e análise de tráfego.

  • Armazenar e/ou aceder a informações no seu dispositivo

    Os cookies, identificadores do dispositivo ou outras informações podem ser armazenados ou acedidos no seu dispositivo, para os fins acima indicados.

  • Anúncios e conteúdos personalizados, medição de anúncios e conteúdos, dados sobre o público-alvo e desenvolvimento de produtos

    Os anúncios e os conteúdos podem ser personalizados com base num perfil. Podem ser adicionados dados adicionais para uma maior personalização dos anúncios e dos conteúdos. A eficácia dos anúncios e dos conteúdos pode ser medida. Podem ser obtidas informações sobre o público que visualizou os anúncios e os conteúdos. Estes dados podem ser usados para desenvolver ou melhorar sistemas, softwares ou a experiência do utilizador.

Ao clicar em "Eu concordo”, permitirá o uso de cookies, identificadores do dispositivo e web beacons mencionados ou outras tecnologias semelhantes. As configurações do navegador do seu dispositivo podem ser alteradas.

Para certos fins, podem ser invocados interesses legítimos ao invés de consentimento. Pode ler mais informação sobre este assunto na nossa Política de Privacidade e Cookies.